Flag for U.S.A. Weather past 2 weeks in Thousand Oaks, California, U.S.A.

Now
59 °F

Partly sunny.


Feels Like: 58 °F
Forecast: 42 / 56 °F
Wind: 8 mph from Northwest

Location: Camarillo Airport

Current Time: Mar 1, 2015 at 6:00:15 PM

Latest Report: Mar 1, 2015 at 4:55 PM


Visibility: 10 mi

Pressure: 29.92 "Hg

Humidity: 58%

Dew point: 44 °F

Location of Thousand OaksLocation

Historic Weather in Thousand Oaks — Graph

°F

Thousand Oaks temperature yesterday

Maximum temperature yesterday: 64 °F (at 12:55 PM)
Minimum temperature yesterday: 46 °F (at 6:55 AM)
Average temperature yesterday: 56 °F

Past Weeks' High & Low Weather Summary

 TemperatureHumidityPressure
High76 °F (Feb 14, 3:55 PM)96% (Feb 19, 3:55 AM)30.29 "Hg (Feb 19, 3:55 AM)
Low43 °F (Feb 24, 2:55 AM)22% (Feb 14, 3:55 PM)29.74 "Hg (Feb 27, 6:55 PM)
Average58 °F71%30.01 "Hg
* Reported Feb 14 3:55 PM — Mar 1 3:55 PM, Thousand Oaks, Weather by CustomWeather, © 2015

Note: Actual official high and low records may vary slightly from our data, if they occured in-between our weather recording intervals... More about our weather records

Advertising

Thousand Oaks weather history for previous 24 hours

 ConditionsComfort  
Time TempWeatherWind HumidityBarometerVisibility
3:55 PM
Sun, Mar 1
62 °FPartly sunny.10 mph54%29.92 "Hg10 mi
2:55 PM63 °FPassing clouds.10 mph48%29.91 "Hg10 mi
1:55 PM64 °FBroken clouds.15 mph47%29.90 "Hg10 mi
12:55 PM63 °FPassing clouds.9 mph48%29.92 "Hg10 mi
11:55 AM63 °FScattered clouds.N/A48%29.93 "Hg10 mi
10:55 AM62 °FSunny.7 mph52%29.96 "Hg10 mi
9:55 AM60 °FSunny.13 mph58%29.97 "Hg10 mi
8:55 AM56 °FSunny.9 mph70%29.97 "Hg10 mi
7:55 AM52 °FSunny.13 mph83%29.97 "Hg10 mi
6:55 AM49 °FSunny.12 mph86%29.96 "Hg10 mi
5:55 AM50 °FPassing clouds.10 mph83%29.95 "Hg10 mi
4:55 AM50 °FMostly cloudy.7 mph83%29.94 "Hg10 mi
3:55 AM50 °FLight rain. Overcast.7 mph83%29.94 "Hg3 mi
2:55 AM51 °FPassing clouds.10 mph80%29.93 "Hg10 mi
1:55 AM50 °FClear.9 mph86%29.93 "Hg10 mi
12:55 AM51 °FPassing clouds.8 mph86%29.93 "Hg10 mi
11:55 PM
Sat, Feb 28
51 °FPassing clouds.7 mph86%29.94 "Hg10 mi
10:55 PM53 °FOvercast.9 mph83%29.93 "Hg10 mi
9:55 PM54 °FLight rain. Mostly cloudy.3 mph80%29.92 "Hg10 mi
8:55 PM54 °FPartly cloudy.6 mph77%29.91 "Hg10 mi
7:55 PM56 °FPassing clouds.No wind67%29.90 "Hg10 mi
6:55 PM55 °FClear.3 mph69%29.89 "Hg10 mi
Weather by CustomWeather, © 2015

See weather overviewHow to use our weather pages